CW5039 Weather Reports


Display with metric or nautical units.
time (UTC)temp
F
wind
direction
speed
MPH
gust
MPH
rain 1hr
in
rain 24hr
in
rain mn
in
humidity
%
barometer
mb
20260503005905 64 296 0.0 2.0 0.00 0.01 0.01 65 1033.8
20260503005405 64 295 3.0 5.0 0.00 0.01 0.01 65 1033.8
20260503004405 64 295 1.0 2.0 0.00 0.01 0.01 65 1034.0
20260503003906 64 295 0.0 2.0 0.00 0.01 0.01 68 1034.1
20260503002405 63 254 1.0 3.0 0.00 0.01 0.01 74 1034.3
20260503001405 62 222 1.0 2.0 0.00 0.01 0.01 74 1034.5
20260503000904 62 223 1.0 3.0 0.00 0.01 0.01 76 1034.5
20260503000407 62 225 1.0 3.0 0.00 0.01 0.01 76 1034.6
20260502233405 61 218 1.0 3.0 0.00 0.01 0.01 78 1035.1
20260502231904 59 211 0.0 0.0 0.00 0.01 0.01 81 1035.1
20260502231405 58 211 0.0 3.0 0.00 0.01 0.01 82 1035.1
20260502230905 58 203 1.0 3.0 0.00 0.01 0.01 83 1035.2
20260502225905 58 197 1.0 3.0 0.00 0.01 0.01 84 1035.3
20260502224905 57 199 1.0 2.0 0.00 0.01 0.01 85 1035.3
20260502224405 57 200 1.0 3.0 0.00 0.01 0.01 87 1035.3
20260502223904 56 203 0.0 2.0 0.00 0.01 0.01 88 1035.3
20260502223405 56 202 2.0 3.0 0.00 0.01 0.01 89 1035.3
20260502222904 55 202 1.0 2.0 0.00 0.01 0.01 90 1035.3
20260502222405 55 201 1.0 2.0 0.00 0.01 0.01 90 1035.3
20260502215905 53 209 2.0 3.0 0.00 0.01 0.01 93 1035.3
20260502215406 53 210 1.0 3.0 0.00 0.01 0.01 94 1035.3
20260502214405 52 206 2.0 3.0 0.00 0.01 0.01 95 1035.3
20260502213904 51 206 1.0 3.0 0.00 0.01 0.01 95 1035.4
20260502212405 50 205 1.0 3.0 0.00 0.01 0.01 95 1035.4
20260502203906 47 205 3.0 5.0 0.00 0.01 0.01 95 1035.4
20260502203405 47 210 5.0 6.0 0.00 0.01 0.01 95 1035.4
20260502200905 43 221 2.0 3.0 0.00 0.01 0.01 95 1035.2
20260502200405 42 225 2.0 3.0 0.00 0.01 0.01 95 1035.2
20260502195404 41 232 0.0 1.0 0.00 0.01 0.01 95 1035.1
20260502194904 41 233 0.0 1.0 0.00 0.01 0.01 95 1035.1
20260502194405 41 233 1.0 3.0 0.00 0.01 0.01 95 1035.0
20260502192405 43 239 0.0 1.0 0.00 0.01 0.01 95 1034.8
20260502190905 41 242 2.0 3.0 0.00 0.01 0.01 95 1034.7
20260502190406 42 242 2.0 2.0 0.00 0.01 0.01 95 1034.7
20260502185406 42 242 1.0 2.0 0.01 0.01 0.01 95 1034.6
20260502184406 43 242 3.0 3.0 0.01 0.01 0.01 95 1034.6
20260502183906 43 242 1.0 2.0 0.01 0.01 0.01 95 1034.5
20260502182906 42 253 2.0 3.0 0.01 0.01 0.01 95 1034.5
20260502181406 42 273 1.0 2.0 0.01 0.01 0.01 95 1034.5
20260502170405 40 292 0.0 1.0 0.00 0.00 0.00 94 1034.3
20260502163906 40 292 0.0 0.0 0.00 0.00 0.00 94 1034.4
20260502162406 40 292 0.0 0.0 0.00 0.00 0.00 94 1034.3
20260502151406 40 294 0.0 1.0 0.00 0.00 0.00 94 1034.5
20260502150405 40 296 0.0 0.0 0.00 0.00 0.00 94 1034.5
20260502123406 41 337 0.0 0.0 0.00 0.00 0.00 94 1034.4
20260502121906 40 337 0.0 0.0 0.00 0.00 0.00 93 1034.3
20260502113906 43 337 0.0 0.0 0.00 0.00 0.00 94 1034.0
20260502112406 41 337 0.0 0.0 0.00 0.00 0.00 93 1034.0
20260502111406 41 337 0.0 0.0 0.00 0.00 0.00 92 1034.0
20260502105906 43 337 0.0 0.0 0.00 0.00 0.00 93 1034.0
20260502104404 43 337 0.0 0.0 0.00 0.00 0.00 92 1034.0
20260502103905 43 337 0.0 0.0 0.00 0.00 0.00 92 1034.0
20260502103406 44 337 0.0 0.0 0.00 0.00 0.00 93 1034.0
20260502102906 44 337 0.0 0.0 0.00 0.00 0.00 92 1034.0
20260502102406 45 337 0.0 0.0 0.00 0.00 0.00 92 1033.9
20260502100905 46 337 0.0 0.0 0.00 0.00 0.00 93 1033.8
20260502090906 47 319 0.0 0.0 0.00 0.00 0.00 92 1033.1
20260502090406 47 319 0.0 0.0 0.00 0.00 0.00 91 1033.1
20260502071405 50 126 0.0 0.0 0.00 0.00 0.00 84 1032.6
20260502070905 50 126 0.0 0.0 0.00 0.00 0.00 84 1032.5
20260502064405 51 126 1.0 2.0 0.00 0.00 0.00 83 1032.4
20260502062905 52 126 2.0 2.0 0.00 0.00 0.00 81 1032.3
20260502062406 53 126 2.0 3.0 0.00 0.00 0.00 80 1032.2
20260502061905 54 125 1.0 3.0 0.00 0.00 0.00 79 1032.2
20260502055905 55 124 1.0 3.0 0.00 0.00 0.00 76 1032.0
20260502055405 57 123 1.0 3.0 0.00 0.00 0.00 73 1031.9
20260502053405 59 123 1.0 2.0 0.00 0.00 0.00 70 1031.9
20260502052906 59 123 2.0 2.0 0.00 0.00 0.00 70 1031.9
20260502051905 61 123 2.0 3.0 0.00 0.00 0.00 67 1031.9
20260502051405 62 127 2.0 3.0 0.00 0.00 0.00 66 1031.9
20260502050405 62 53 0.0 0.0 0.00 0.00 0.00 65 1031.9
20260502045904 62 53 0.0 0.0 0.00 0.00 0.00 67 1031.9
20260502045406 62 53 0.0 0.0 0.00 0.00 0.00 67 1032.0
20260502044905 62 53 0.0 0.0 0.00 0.00 0.00 68 1031.9
20260502041905 64 52 0.0 0.0 0.00 0.00 0.00 66 1032.0
20260502035406 64 51 0.0 0.0 0.00 0.00 0.00 63 1032.1
20260502034405 65 51 0.0 0.0 0.00 0.00 0.00 62 1032.2
20260502033905 66 51 0.0 0.0 0.00 0.00 0.00 63 1032.2
20260502032906 66 51 0.0 0.0 0.00 0.00 0.00 63 1032.2
20260502032405 66 51 0.0 0.0 0.00 0.00 0.00 64 1032.2
20260502031406 66 51 1.0 2.0 0.00 0.00 0.00 61 1032.2
20260502030405 65 161 0.0 2.0 0.00 0.00 0.00 63 1032.3
20260502025905 66 93 2.0 5.0 0.00 0.00 0.00 62 1032.4
20260502024906 66 128 0.0 2.0 0.00 0.00 0.00 61 1032.5
20260502024405 67 128 2.0 3.0 0.00 0.00 0.00 62 1032.5
20260502022905 66 144 2.0 3.0 0.00 0.00 0.00 60 1032.6
20260502021904 66 136 0.0 2.0 0.00 0.00 0.00 61 1032.7
20260502020405 65 134 1.0 3.0 0.00 0.00 0.00 64 1032.8
20260502015904 65 142 2.0 3.0 0.00 0.00 0.00 66 1032.9
20260502012405 65 151 4.0 5.0 0.00 0.00 0.00 64 1033.2
20260502011405 65 142 1.0 3.0 0.00 0.00 0.00 66 1033.4
20260502010905 65 110 2.0 5.0 0.00 0.00 0.00 66 1033.5
20260502010406 65 130 2.0 5.0 0.00 0.00 0.00 67 1033.5